Location: Holyhead Bay
(53.3667°N, 4.6667°W)
Time: 21:33:25
(UTC+00:00)

Cosmos 1408 Rocket - Pass Details

Date: 20 April 2021
Orbit: 601 x 631 km, 82.6° (Epoch: 16 May)

Event Time Altitude Azimuth Distance (km) Brightness Sun altitude
Rises 20:53:38 0° 356° (N) 2,867 7.7 -11.7°
Reaches altitude 10° 20:56:12 10° 10° (N) 1,960 6.5 -12.0°
Maximum altitude 20:59:46 25° 66° (ENE) 1,252 4.9 -12.4°
Enters shadow 21:01:56 17° 107° (ESE) 1,550 5.1 -12.7°
